| time (UTC) | temp F | wind direction | speed MPH | gust MPH | rain 1hr in | rain 24hr in | rain mn in | humidity % | barometer mb |
| 20260831121926 | 48 | 209 | 1.0 | 3.0 | 0.00 | 0.00 | 0.00 | 96 | 1013.3 |
| 20260831121420 | 48 | 204 | 1.0 | 2.0 | 0.00 | 0.00 | 0.00 | 96 | 1013.4 |
| 20260831120916 | 48 | 204 | 1.0 | 2.0 | 0.00 | 0.00 | 0.00 | 96 | 1013.5 |
| 20260831120408 | 48 | 203 | 1.0 | 2.0 | 0.00 | 0.00 | 0.00 | 96 | 1013.6 |
| 20260831115902 | 48 | 213 | 0.0 | 2.0 | 0.00 | 0.00 | 0.00 | 96 | 1013.5 |
| 20260831115356 | 48 | 213 | 0.0 | 2.0 | 0.00 | 0.00 | 0.00 | 96 | 1013.5 |
| 20260831115128 | 48 | 213 | 1.0 | 2.0 | 0.00 | 0.00 | 0.00 | 96 | 1013.6 |
| 20260831114346 | 48 | 213 | 1.0 | 2.0 | 0.00 | 0.00 | 0.00 | 96 | 1013.6 |
| 20260831113838 | 48 | 213 | 0.0 | 2.0 | 0.00 | 0.00 | 0.00 | 96 | 1013.7 |
| 20260831113332 | 48 | 213 | 0.0 | 2.0 | 0.00 | 0.00 | 0.00 | 96 | 1013.6 |
| 20260831112827 | 48 | 213 | 0.0 | 2.0 | 0.00 | 0.00 | 0.00 | 96 | 1013.7 |
| 20260831112320 | 48 | 213 | 0.0 | 0.0 | 0.00 | 0.00 | 0.00 | 96 | 1013.7 |
| 20260831112050 | 48 | 213 | 0.0 | 0.0 | 0.00 | 0.00 | 0.00 | 96 | 1013.8 |
| 20260831111537 | 48 | 213 | 0.0 | 0.0 | 0.00 | 0.00 | 0.00 | 96 | 1014.0 |
| 20260831111034 | 48 | 213 | 0.0 | 1.0 | 0.00 | 0.00 | 0.00 | 96 | 1014.1 |
| 20260831110256 | 49 | 213 | 0.0 | 1.0 | 0.00 | 0.00 | 0.00 | 96 | 1014.1 |
| 20260831105750 | 49 | 213 | 0.0 | 0.0 | 0.00 | 0.00 | 0.00 | 96 | 1014.0 |
| 20260831105244 | 49 | 213 | 0.0 | 1.0 | 0.00 | 0.00 | 0.00 | 96 | 1014.1 |
| 20260831104739 | 49 | 213 | 0.0 | 3.0 | 0.00 | 0.00 | 0.00 | 96 | 1014.1 |
| 20260831104232 | 49 | 213 | 1.0 | 3.0 | 0.00 | 0.00 | 0.00 | 96 | 1014.1 |
| 20260831103726 | 49 | 221 | 1.0 | 2.0 | 0.00 | 0.00 | 0.00 | 96 | 1014.3 |
| 20260831103450 | 49 | 232 | 0.0 | 2.0 | 0.00 | 0.00 | 0.00 | 96 | 1014.3 |
| 20260831102715 | 49 | 232 | 1.0 | 3.0 | 0.00 | 0.00 | 0.00 | 96 | 1014.3 |
| 20260831102208 | 49 | 232 | 1.0 | 3.0 | 0.00 | 0.00 | 0.00 | 96 | 1014.4 |
| 20260831101702 | 49 | 213 | 0.0 | 2.0 | 0.00 | 0.00 | 0.00 | 95 | 1014.4 |
| 20260831101156 | 49 | 213 | 1.0 | 3.0 | 0.00 | 0.00 | 0.00 | 96 | 1014.5 |
| 20260831100651 | 49 | 213 | 0.0 | 3.0 | 0.00 | 0.00 | 0.00 | 95 | 1014.4 |
| 20260831100404 | 49 | 213 | 0.0 | 0.0 | 0.00 | 0.00 | 0.00 | 95 | 1014.4 |
| 20260831095638 | 49 | 213 | 0.0 | 1.0 | 0.00 | 0.00 | 0.00 | 95 | 1014.5 |
| 20260831095132 | 49 | 213 | 0.0 | 2.0 | 0.00 | 0.00 | 0.00 | 95 | 1014.6 |
| 20260831094627 | 49 | 213 | 0.0 | 1.0 | 0.00 | 0.00 | 0.00 | 95 | 1014.7 |
| 20260831094120 | 49 | 213 | 0.0 | 0.0 | 0.00 | 0.00 | 0.00 | 95 | 1014.7 |
| 20260831093616 | 49 | 213 | 0.0 | 0.0 | 0.00 | 0.00 | 0.00 | 95 | 1014.8 |
| 20260831093116 | 49 | 213 | 0.0 | 0.0 | 0.00 | 0.00 | 0.00 | 95 | 1014.9 |
| 20260831092617 | 49 | 213 | 0.0 | 1.0 | 0.00 | 0.00 | 0.00 | 95 | 1015.0 |
| 20260831092122 | 49 | 213 | 0.0 | 1.0 | 0.00 | 0.00 | 0.00 | 95 | 1015.0 |
| 20260831091619 | 49 | 213 | 0.0 | 1.0 | 0.00 | 0.00 | 0.00 | 95 | 1015.1 |
| 20260831091338 | 49 | 213 | 0.0 | 2.0 | 0.00 | 0.00 | 0.00 | 95 | 1015.2 |
| 20260831090612 | 49 | 213 | 0.0 | 2.0 | 0.00 | 0.00 | 0.00 | 95 | 1015.2 |
| 20260831090333 | 50 | 214 | 0.0 | 2.0 | 0.00 | 0.00 | 0.00 | 95 | 1015.2 |
| 20260831085839 | 50 | 214 | 0.0 | 2.0 | 0.00 | 0.00 | 0.00 | 95 | 1015.3 |
| 20260831085105 | 50 | 214 | 0.0 | 1.0 | 0.00 | 0.00 | 0.00 | 95 | 1015.3 |
| 20260831084845 | 50 | 214 | 0.0 | 2.0 | 0.00 | 0.00 | 0.00 | 95 | 1015.3 |
| 20260831084102 | 50 | 214 | 0.0 | 2.0 | 0.00 | 0.00 | 0.00 | 95 | 1015.2 |
| 20260831083601 | 50 | 208 | 1.0 | 3.0 | 0.00 | 0.00 | 0.00 | 95 | 1015.3 |
| 20260831083100 | 50 | 208 | 1.0 | 3.0 | 0.00 | 0.00 | 0.00 | 95 | 1015.2 |
| 20260831082559 | 50 | 217 | 0.0 | 2.0 | 0.00 | 0.00 | 0.00 | 95 | 1015.3 |
| 20260831082058 | 50 | 211 | 0.0 | 2.0 | 0.00 | 0.00 | 0.00 | 95 | 1015.3 |
| 20260831081828 | 50 | 211 | 0.0 | 2.0 | 0.00 | 0.00 | 0.00 | 95 | 1015.3 |
| 20260831081104 | 50 | 213 | 0.0 | 2.0 | 0.00 | 0.00 | 0.00 | 95 | 1015.3 |
| 20260831080606 | 50 | 213 | 0.0 | 2.0 | 0.00 | 0.00 | 0.00 | 95 | 1015.3 |
| 20260831080335 | 50 | 215 | 0.0 | 3.0 | 0.00 | 0.00 | 0.00 | 95 | 1015.5 |
| 20260831080057 | 50 | 213 | 1.0 | 2.0 | 0.00 | 0.00 | 0.00 | 95 | 1015.4 |
| 20260831075053 | 50 | 211 | 0.0 | 3.0 | 0.00 | 0.00 | 0.00 | 95 | 1015.5 |
| 20260831074549 | 50 | 211 | 1.0 | 2.0 | 0.00 | 0.00 | 0.00 | 95 | 1015.6 |
| 20260831074311 | 51 | 212 | 1.0 | 2.0 | 0.00 | 0.00 | 0.00 | 95 | 1015.6 |
| 20260831073550 | 51 | 212 | 1.0 | 2.0 | 0.00 | 0.00 | 0.00 | 95 | 1015.7 |
| 20260831073044 | 51 | 216 | 1.0 | 2.0 | 0.00 | 0.00 | 0.00 | 95 | 1015.7 |
| 20260831072540 | 51 | 217 | 1.0 | 2.0 | 0.00 | 0.00 | 0.00 | 94 | 1015.7 |
| 20260831072037 | 51 | 217 | 0.0 | 2.0 | 0.00 | 0.00 | 0.00 | 95 | 1015.8 |
| 20260831071537 | 51 | 217 | 0.0 | 0.0 | 0.00 | 0.00 | 0.00 | 95 | 1015.9 |
| 20260831071036 | 51 | 217 | 0.0 | 2.0 | 0.00 | 0.00 | 0.00 | 95 | 1016.0 |
| 20260831070534 | 51 | 217 | 1.0 | 3.0 | 0.00 | 0.00 | 0.00 | 95 | 1016.0 |
| 20260831070035 | 51 | 217 | 1.0 | 3.0 | 0.00 | 0.00 | 0.00 | 94 | 1016.1 |
| 20260831065534 | 51 | 211 | 1.0 | 3.0 | 0.00 | 0.00 | 0.00 | 94 | 1016.1 |
| 20260831065032 | 51 | 223 | 1.0 | 2.0 | 0.00 | 0.00 | 0.00 | 94 | 1016.1 |
| 20260831064530 | 51 | 223 | 0.0 | 2.0 | 0.00 | 0.00 | 0.00 | 94 | 1016.1 |
| 20260831064028 | 51 | 223 | 0.0 | 2.0 | 0.00 | 0.00 | 0.00 | 94 | 1016.1 |
| 20260831063759 | 51 | 223 | 0.0 | 2.0 | 0.00 | 0.00 | 0.00 | 94 | 1016.2 |
| 20260831063030 | 51 | 223 | 0.0 | 2.0 | 0.00 | 0.00 | 0.00 | 94 | 1016.3 |
| 20260831062523 | 52 | 223 | 0.0 | 1.0 | 0.00 | 0.00 | 0.00 | 93 | 1016.3 |
| 20260831062017 | 52 | 223 | 0.0 | 2.0 | 0.00 | 0.00 | 0.00 | 93 | 1016.3 |
| 20260831061511 | 52 | 223 | 0.0 | 2.0 | 0.00 | 0.00 | 0.00 | 93 | 1016.4 |
| 20260831061005 | 52 | 223 | 0.0 | 1.0 | 0.00 | 0.00 | 0.00 | 93 | 1016.5 |
| 20260831060501 | 52 | 223 | 0.0 | 1.0 | 0.00 | 0.00 | 0.00 | 93 | 1016.6 |
| 20260831055953 | 52 | 223 | 0.0 | 0.0 | 0.00 | 0.00 | 0.00 | 92 | 1016.6 |
| 20260831055447 | 52 | 223 | 0.0 | 0.0 | 0.00 | 0.00 | 0.00 | 92 | 1016.6 |
| 20260831054940 | 53 | 223 | 0.0 | 0.0 | 0.00 | 0.00 | 0.00 | 92 | 1016.7 |
| 20260831054439 | 53 | 223 | 0.0 | 0.0 | 0.00 | 0.00 | 0.00 | 92 | 1016.7 |
| 20260831053936 | 53 | 223 | 0.0 | 0.0 | 0.00 | 0.00 | 0.00 | 92 | 1016.7 |
| 20260831053435 | 53 | 223 | 0.0 | 0.0 | 0.00 | 0.00 | 0.00 | 92 | 1016.8 |
| 20260831053430 | 53 | 223 | 0.0 | 0.0 | 0.00 | 0.00 | 0.00 | 92 | 1016.7 |
| 20260831052434 | 53 | 223 | 0.0 | 2.0 | 0.00 | 0.00 | 0.00 | 92 | 1016.8 |
| 20260831051935 | 53 | 223 | 0.0 | 2.0 | 0.00 | 0.00 | 0.00 | 91 | 1016.8 |
| 20260831051653 | 54 | 223 | 0.0 | 0.0 | 0.00 | 0.00 | 0.00 | 91 | 1016.8 |
| 20260831050934 | 54 | 223 | 0.0 | 0.0 | 0.00 | 0.00 | 0.00 | 91 | 1016.7 |
| 20260831050432 | 54 | 223 | 0.0 | 1.0 | 0.00 | 0.00 | 0.00 | 91 | 1016.8 |
| 20260831045931 | 54 | 223 | 0.0 | 1.0 | 0.00 | 0.00 | 0.00 | 91 | 1016.8 |
| 20260831045435 | 54 | 223 | 0.0 | 1.0 | 0.00 | 0.00 | 0.00 | 91 | 1016.8 |
| 20260831044930 | 55 | 223 | 0.0 | 0.0 | 0.00 | 0.00 | 0.00 | 91 | 1016.8 |
| 20260831044429 | 55 | 223 | 0.0 | 0.0 | 0.00 | 0.00 | 0.00 | 90 | 1016.8 |
| 20260831043928 | 55 | 223 | 0.0 | 0.0 | 0.00 | 0.00 | 0.00 | 90 | 1016.8 |
| 20260831043649 | 55 | 223 | 0.0 | 0.0 | 0.00 | 0.00 | 0.00 | 89 | 1016.8 |
| 20260831042924 | 55 | 223 | 0.0 | 0.0 | 0.00 | 0.00 | 0.00 | 90 | 1016.9 |
| 20260831042420 | 56 | 223 | 0.0 | 0.0 | 0.00 | 0.00 | 0.00 | 89 | 1016.8 |
| 20260831041921 | 56 | 223 | 0.0 | 1.0 | 0.00 | 0.00 | 0.00 | 89 | 1016.8 |
| 20260831041647 | 56 | 223 | 0.0 | 1.0 | 0.00 | 0.00 | 0.00 | 89 | 1016.8 |
| 20260831040911 | 56 | 223 | 0.0 | 0.0 | 0.00 | 0.01 | 0.00 | 89 | 1016.9 |
| 20260831040631 | 56 | 223 | 0.0 | 1.0 | 0.00 | 0.01 | 0.00 | 88 | 1016.8 |
| 20260831035859 | 57 | 223 | 0.0 | 1.0 | 0.00 | 0.01 | 0.00 | 88 | 1016.8 |
| 20260831035353 | 57 | 223 | 0.0 | 1.0 | 0.00 | 0.01 | 0.00 | 88 | 1016.7 |
| 20260831034847 | 57 | 223 | 0.0 | 0.0 | 0.00 | 0.01 | 0.00 | 88 | 1016.7 |
| 20260831034342 | 57 | 223 | 0.0 | 0.0 | 0.00 | 0.01 | 0.00 | 87 | 1016.6 |
| 20260831034056 | 58 | 223 | 0.0 | 0.0 | 0.00 | 0.01 | 0.00 | 86 | 1016.6 |
| 20260831033335 | 58 | 223 | 0.0 | 1.0 | 0.00 | 0.01 | 0.00 | 86 | 1016.6 |
| 20260831032832 | 58 | 223 | 0.0 | 1.0 | 0.00 | 0.01 | 0.00 | 85 | 1016.5 |
| 20260831032331 | 58 | 223 | 0.0 | 1.0 | 0.00 | 0.01 | 0.00 | 85 | 1016.5 |
| 20260831031837 | 59 | 223 | 0.0 | 2.0 | 0.00 | 0.01 | 0.00 | 85 | 1016.4 |
| 20260831031334 | 59 | 223 | 0.0 | 2.0 | 0.00 | 0.01 | 0.00 | 83 | 1016.4 |
| 20260831030829 | 60 | 223 | 0.0 | 2.0 | 0.00 | 0.01 | 0.00 | 83 | 1016.4 |
| 20260831030328 | 60 | 223 | 1.0 | 3.0 | 0.00 | 0.01 | 0.00 | 83 | 1016.4 |
| 20260831030051 | 60 | 225 | 1.0 | 3.0 | 0.00 | 0.01 | 0.00 | 82 | 1016.4 |
| 20260831025326 | 61 | 178 | 0.0 | 2.0 | 0.00 | 0.01 | 0.00 | 82 | 1016.4 |
| 20260831024825 | 61 | 178 | 0.0 | 2.0 | 0.00 | 0.02 | 0.00 | 81 | 1016.4 |
| 20260831024328 | 62 | 178 | 0.0 | 2.0 | 0.00 | 0.02 | 0.00 | 81 | 1016.5 |
| 20260831023826 | 62 | 178 | 0.0 | 1.0 | 0.00 | 0.02 | 0.00 | 81 | 1016.5 |
| 20260831023322 | 63 | 178 | 0.0 | 1.0 | 0.00 | 0.02 | 0.00 | 81 | 1016.5 |
| 20260831022822 | 63 | 178 | 0.0 | 1.0 | 0.00 | 0.02 | 0.00 | 82 | 1016.5 |
| 20260831022323 | 63 | 178 | 0.0 | 2.0 | 0.00 | 0.02 | 0.00 | 82 | 1016.5 |
| 20260831021822 | 64 | 178 | 0.0 | 2.0 | 0.00 | 0.02 | 0.00 | 82 | 1016.5 |
| 20260831021331 | 64 | 178 | 0.0 | 1.0 | 0.00 | 0.02 | 0.00 | 82 | 1016.5 |
| 20260831020827 | 64 | 178 | 0.0 | 1.0 | 0.00 | 0.02 | 0.00 | 83 | 1016.5 |
| 20260831020325 | 64 | 178 | 0.0 | 1.0 | 0.00 | 0.02 | 0.00 | 82 | 1016.6 |
| 20260831015828 | 65 | 178 | 0.0 | 1.0 | 0.00 | 0.02 | 0.00 | 80 | 1016.5 |
| 20260831015325 | 65 | 178 | 0.0 | 0.0 | 0.00 | 0.02 | 0.00 | 80 | 1016.6 |
| 20260831014819 | 65 | 178 | 0.0 | 1.0 | 0.00 | 0.02 | 0.00 | 81 | 1016.7 |
| 20260831014323 | 65 | 178 | 0.0 | 1.0 | 0.00 | 0.02 | 0.00 | 80 | 1016.7 |
| 20260831013822 | 65 | 178 | 0.0 | 1.0 | 0.00 | 0.02 | 0.00 | 81 | 1016.7 |
| 20260831013553 | 65 | 178 | 0.0 | 0.0 | 0.00 | 0.02 | 0.00 | 80 | 1016.7 |
| 20260831013545 | 65 | 178 | 0.0 | 0.0 | 0.00 | 0.02 | 0.00 | 78 | 1016.8 |
| 20260831013541 | 65 | 178 | 0.0 | 0.0 | 0.00 | 0.02 | 0.00 | 79 | 1016.7 |
| 20260831012049 | 66 | 178 | 0.0 | 0.0 | 0.00 | 0.02 | 0.00 | 78 | 1016.9 |
| 20260831011317 | 66 | 178 | 0.0 | 0.0 | 0.00 | 0.02 | 0.00 | 80 | 1016.9 |
| 20260831010818 | 66 | 178 | 0.0 | 0.0 | 0.00 | 0.02 | 0.00 | 80 | 1016.9 |
| 20260831010315 | 66 | 178 | 0.0 | 1.0 | 0.00 | 0.02 | 0.00 | 79 | 1016.9 |
| 20260831005811 | 66 | 178 | 0.0 | 1.0 | 0.00 | 0.02 | 0.00 | 78 | 1016.9 |
| 20260831005312 | 66 | 178 | 0.0 | 1.0 | 0.00 | 0.02 | 0.00 | 76 | 1017.0 |
| 20260831004812 | 67 | 178 | 0.0 | 0.0 | 0.00 | 0.02 | 0.00 | 77 | 1017.0 |
| 20260831004307 | 67 | 178 | 0.0 | 0.0 | 0.00 | 0.02 | 0.00 | 77 | 1017.0 |
| 20260831003808 | 67 | 178 | 0.0 | 0.0 | 0.00 | 0.02 | 0.00 | 76 | 1017.0 |
| 20260831003307 | 67 | 178 | 0.0 | 0.0 | 0.00 | 0.02 | 0.00 | 73 | 1017.0 |
| 20260831002805 | 67 | 178 | 0.0 | 0.0 | 0.00 | 0.02 | 0.00 | 74 | 1017.0 |
| 20260831002306 | 67 | 178 | 0.0 | 0.0 | 0.00 | 0.02 | 0.00 | 73 | 1017.1 |
| 20260831001802 | 68 | 178 | 0.0 | 0.0 | 0.00 | 0.02 | 0.00 | 72 | 1017.1 |
| 20260831001530 | 68 | 178 | 0.0 | 0.0 | 0.00 | 0.02 | 0.00 | 74 | 1017.2 |
| 20260831000804 | 68 | 178 | 0.0 | 0.0 | 0.00 | 0.02 | 0.00 | 70 | 1017.1 |
| 20260831000258 | 68 | 178 | 0.0 | 1.0 | 0.00 | 0.02 | 0.00 | 73 | 1017.0 |
| 20260830235754 | 68 | 178 | 0.0 | 1.0 | 0.00 | 0.02 | 0.00 | 64 | 1017.0 |
| 20260830235246 | 68 | 178 | 0.0 | 1.0 | 0.00 | 0.02 | 0.00 | 67 | 1017.1 |
| 20260830234740 | 68 | 178 | 0.0 | 2.0 | 0.00 | 0.02 | 0.00 | 65 | 1017.2 |
| 20260830234456 | 68 | 178 | 0.0 | 3.0 | 0.00 | 0.02 | 0.00 | 60 | 1017.1 |
| 20260830233729 | 68 | 175 | 1.0 | 5.0 | 0.00 | 0.02 | 0.00 | 61 | 1017.2 |
| 20260830233222 | 69 | 183 | 1.0 | 5.0 | 0.00 | 0.02 | 0.00 | 59 | 1017.2 |
| 20260830232712 | 69 | 189 | 1.0 | 4.0 | 0.00 | 0.02 | 0.00 | 62 | 1017.2 |
| 20260830232210 | 69 | 182 | 1.0 | 2.0 | 0.00 | 0.02 | 0.00 | 59 | 1017.3 |
| 20260830231704 | 69 | 204 | 2.0 | 5.0 | 0.00 | 0.02 | 0.00 | 61 | 1017.4 |
| 20260830231158 | 69 | 240 | 2.0 | 6.0 | 0.00 | 0.02 | 0.00 | 55 | 1017.4 |
| 20260830230652 | 70 | 209 | 1.0 | 6.0 | 0.00 | 0.02 | 0.00 | 56 | 1017.5 |
| 20260830230148 | 71 | 344 | 0.0 | 1.0 | 0.00 | 0.02 | 0.00 | 60 | 1017.5 |
| 20260830225906 | 71 | 344 | 0.0 | 1.0 | 0.00 | 0.02 | 0.00 | 58 | 1017.5 |
| 20260830225134 | 71 | 344 | 0.0 | 2.0 | 0.00 | 0.02 | 0.00 | 55 | 1017.5 |
| 20260830224627 | 71 | 340 | 0.0 | 3.0 | 0.00 | 0.02 | 0.00 | 58 | 1017.5 |
| 20260830224124 | 71 | 212 | 1.0 | 4.0 | 0.00 | 0.02 | 0.00 | 54 | 1017.4 |
| 20260830223844 | 71 | 142 | 1.0 | 4.0 | 0.00 | 0.02 | 0.00 | 56 | 1017.4 |
| 20260830223114 | 72 | 267 | 1.0 | 2.0 | 0.00 | 0.02 | 0.00 | 54 | 1017.4 |
| 20260830222828 | 72 | 32 | 1.0 | 3.0 | 0.00 | 0.02 | 0.00 | 59 | 1017.4 |
| 20260830222057 | 72 | 280 | 2.0 | 6.0 | 0.00 | 0.02 | 0.00 | 51 | 1017.5 |
| 20260830221555 | 72 | 59 | 1.0 | 6.0 | 0.00 | 0.02 | 0.00 | 54 | 1017.6 |
| 20260830221046 | 72 | 263 | 1.0 | 3.0 | 0.00 | 0.02 | 0.00 | 58 | 1017.5 |
| 20260830220541 | 71 | 238 | 1.0 | 5.0 | 0.00 | 0.02 | 0.00 | 57 | 1017.6 |
| 20260830220036 | 70 | 233 | 1.0 | 5.0 | 0.00 | 0.02 | 0.00 | 58 | 1017.6 |
| 20260830215530 | 70 | 213 | 1.0 | 5.0 | 0.00 | 0.02 | 0.00 | 54 | 1017.7 |
| 20260830215250 | 70 | 345 | 1.0 | 2.0 | 0.00 | 0.02 | 0.00 | 59 | 1017.9 |
| 20260830214516 | 70 | 293 | 1.0 | 4.0 | 0.00 | 0.02 | 0.00 | 57 | 1017.9 |
| 20260830214013 | 69 | 355 | 1.0 | 4.0 | 0.00 | 0.02 | 0.00 | 57 | 1018.0 |
| 20260830213511 | 69 | 230 | 2.0 | 5.0 | 0.00 | 0.02 | 0.00 | 60 | 1018.0 |
| 20260830213012 | 68 | 55 | 2.0 | 5.0 | 0.00 | 0.02 | 0.00 | 60 | 1018.1 |
| 20260830212510 | 68 | 155 | 1.0 | 4.0 | 0.00 | 0.02 | 0.00 | 58 | 1018.1 |
| 20260830212009 | 68 | 55 | 1.0 | 5.0 | 0.00 | 0.02 | 0.00 | 61 | 1018.3 |
| 20260830211507 | 68 | 355 | 2.0 | 5.0 | 0.00 | 0.02 | 0.00 | 62 | 1018.4 |
| 20260830211235 | 67 | 335 | 1.0 | 4.0 | 0.00 | 0.02 | 0.00 | 62 | 1018.4 |
| 20260830210506 | 67 | 126 | 1.0 | 3.0 | 0.00 | 0.02 | 0.00 | 60 | 1018.5 |
| 20260830210004 | 67 | 83 | 1.0 | 4.0 | 0.00 | 0.02 | 0.00 | 64 | 1018.5 |
| 20260830205728 | 67 | 67 | 1.0 | 4.0 | 0.00 | 0.02 | 0.00 | 64 | 1018.6 |
| 20260830205011 | 67 | 17 | 0.0 | 2.0 | 0.00 | 0.02 | 0.00 | 65 | 1018.5 |
| 20260830204505 | 67 | 228 | 1.0 | 4.0 | 0.00 | 0.02 | 0.00 | 61 | 1018.6 |
| 20260830204005 | 67 | 177 | 1.0 | 4.0 | 0.00 | 0.02 | 0.00 | 60 | 1018.7 |
| 20260830203501 | 67 | 71 | 1.0 | 3.0 | 0.00 | 0.02 | 0.00 | 63 | 1018.7 |
| 20260830203001 | 67 | 226 | 1.0 | 3.0 | 0.00 | 0.02 | 0.00 | 62 | 1018.6 |
| 20260830202457 | 67 | 195 | 2.0 | 5.0 | 0.00 | 0.02 | 0.00 | 57 | 1018.6 |
| 20260830201957 | 67 | 163 | 1.0 | 5.0 | 0.00 | 0.02 | 0.00 | 61 | 1018.6 |
| 20260830201729 | 66 | 227 | 0.0 | 2.0 | 0.00 | 0.02 | 0.00 | 62 | 1018.7 |
| 20260830200955 | 66 | 111 | 1.0 | 4.0 | 0.00 | 0.02 | 0.00 | 70 | 1018.7 |
| 20260830200453 | 66 | 147 | 1.0 | 4.0 | 0.00 | 0.02 | 0.00 | 61 | 1018.8 |
| 20260830195953 | 66 | 5 | 0.0 | 1.0 | 0.00 | 0.02 | 0.00 | 62 | 1018.7 |
| 20260830195454 | 66 | 317 | 0.0 | 2.0 | 0.00 | 0.05 | 0.00 | 65 | 1018.8 |
| 20260830195219 | 66 | 28 | 0.0 | 2.0 | 0.00 | 0.05 | 0.00 | 69 | 1018.8 |
| 20260830194453 | 65 | 19 | 0.0 | 4.0 | 0.00 | 0.05 | 0.00 | 68 | 1018.7 |
| 20260830194001 | 65 | 71 | 1.0 | 4.0 | 0.00 | 0.05 | 0.00 | 66 | 1018.8 |
| 20260830193457 | 65 | 138 | 1.0 | 3.0 | 0.00 | 0.05 | 0.00 | 71 | 1018.8 |
| 20260830192956 | 65 | 138 | 0.0 | 3.0 | 0.00 | 0.05 | 0.00 | 68 | 1018.8 |
| 20260830192453 | 65 | 249 | 0.0 | 2.0 | 0.00 | 0.06 | 0.00 | 70 | 1018.9 |
| 20260830191953 | 65 | 5 | 0.0 | 3.0 | 0.00 | 0.06 | 0.00 | 69 | 1018.8 |
| 20260830191454 | 65 | 252 | 1.0 | 3.0 | 0.00 | 0.06 | 0.00 | 71 | 1018.9 |
| 20260830190953 | 64 | 111 | 1.0 | 3.0 | 0.00 | 0.06 | 0.00 | 68 | 1018.9 |
| 20260830190454 | 64 | 271 | 0.0 | 2.0 | 0.00 | 0.06 | 0.00 | 68 | 1019.0 |
| 20260830190221 | 64 | 246 | 1.0 | 4.0 | 0.00 | 0.06 | 0.00 | 70 | 1019.0 |
| 20260830185454 | 64 | 22 | 2.0 | 5.0 | 0.00 | 0.06 | 0.00 | 71 | 1019.1 |
| 20260830184951 | 63 | 117 | 1.0 | 5.0 | 0.00 | 0.06 | 0.00 | 71 | 1019.1 |
| 20260830184936 | 62 | 188 | 1.0 | 5.0 | 0.00 | 0.06 | 0.00 | 74 | 1019.1 |
| 20260830184217 | 62 | 151 | 0.0 | 4.0 | 0.00 | 0.07 | 0.00 | 72 | 1019.1 |
| 20260830183451 | 62 | 116 | 0.0 | 3.0 | 0.00 | 0.07 | 0.00 | 73 | 1019.2 |
| 20260830182954 | 62 | 5 | 0.0 | 2.0 | 0.00 | 0.07 | 0.00 | 75 | 1019.2 |
| 20260830182948 | 62 | 9 | 1.0 | 3.0 | 0.00 | 0.07 | 0.00 | 78 | 1019.3 |
| 20260830181954 | 61 | 355 | 2.0 | 5.0 | 0.00 | 0.07 | 0.00 | 77 | 1019.3 |
| 20260830181451 | 61 | 140 | 2.0 | 5.0 | 0.00 | 0.08 | 0.00 | 79 | 1019.3 |
| 20260830180952 | 60 | 155 | 2.0 | 5.0 | 0.00 | 0.08 | 0.00 | 79 | 1019.2 |
| 20260830180448 | 60 | 183 | 2.0 | 5.0 | 0.00 | 0.08 | 0.00 | 81 | 1019.2 |
| 20260830175947 | 59 | 167 | 1.0 | 4.0 | 0.00 | 0.08 | 0.00 | 79 | 1019.2 |
| 20260830175449 | 59 | 217 | 0.0 | 2.0 | 0.00 | 0.08 | 0.00 | 82 | 1019.2 |
| 20260830175219 | 59 | 123 | 0.0 | 1.0 | 0.00 | 0.08 | 0.00 | 88 | 1019.2 |
| 20260830174445 | 59 | 123 | 0.0 | 2.0 | 0.00 | 0.08 | 0.00 | 86 | 1019.2 |
| 20260830173946 | 59 | 144 | 0.0 | 2.0 | 0.00 | 0.08 | 0.00 | 82 | 1019.2 |
| 20260830173714 | 59 | 12 | 0.0 | 2.0 | 0.00 | 0.08 | 0.00 | 83 | 1019.2 |
| 20260830172946 | 59 | 11 | 1.0 | 3.0 | 0.00 | 0.08 | 0.00 | 87 | 1019.1 |
| 20260830172714 | 58 | 252 | 1.0 | 4.0 | 0.00 | 0.08 | 0.00 | 84 | 1019.2 |
| 20260830171943 | 58 | 140 | 1.0 | 4.0 | 0.00 | 0.08 | 0.00 | 85 | 1019.1 |
| 20260830171443 | 57 | 98 | 0.0 | 1.0 | 0.00 | 0.08 | 0.00 | 90 | 1019.0 |
| 20260830170953 | 57 | 98 | 1.0 | 4.0 | 0.00 | 0.08 | 0.00 | 90 | 1019.0 |
| 20260830170445 | 56 | 195 | 1.0 | 4.0 | 0.00 | 0.08 | 0.00 | 90 | 1019.1 |
| 20260830165938 | 56 | 150 | 0.0 | 2.0 | 0.00 | 0.08 | 0.00 | 92 | 1019.1 |
| 20260830165431 | 56 | 102 | 0.0 | 2.0 | 0.00 | 0.08 | 0.00 | 93 | 1019.1 |
| 20260830164927 | 56 | 185 | 0.0 | 1.0 | 0.00 | 0.08 | 0.00 | 95 | 1019.0 |
| 20260830164418 | 56 | 185 | 0.0 | 1.0 | 0.00 | 0.08 | 0.00 | 96 | 1019.1 |
| 20260830164145 | 56 | 185 | 0.0 | 1.0 | 0.00 | 0.08 | 0.00 | 96 | 1019.0 |
| 20260830163409 | 55 | 194 | 0.0 | 0.0 | 0.00 | 0.08 | 0.00 | 97 | 1019.1 |
| 20260830162901 | 55 | 194 | 0.0 | 1.0 | 0.00 | 0.08 | 0.00 | 96 | 1019.1 |
| 20260830162614 | 55 | 194 | 0.0 | 1.0 | 0.00 | 0.09 | 0.00 | 96 | 1019.2 |
| 20260830161851 | 55 | 194 | 0.0 | 0.0 | 0.00 | 0.10 | 0.00 | 97 | 1019.1 |
| 20260830161346 | 54 | 194 | 0.0 | 0.0 | 0.00 | 0.11 | 0.00 | 97 | 1019.2 |
| 20260830160841 | 54 | 194 | 0.0 | 0.0 | 0.00 | 0.14 | 0.00 | 97 | 1019.2 |
| 20260830160333 | 54 | 194 | 0.0 | 0.0 | 0.00 | 0.16 | 0.00 | 97 | 1019.2 |
| 20260830155823 | 54 | 194 | 0.0 | 0.0 | 0.00 | 0.18 | 0.00 | 97 | 1019.2 |
| 20260830155537 | 54 | 194 | 0.0 | 0.0 | 0.00 | 0.19 | 0.00 | 97 | 1019.3 |
| 20260830154817 | 54 | 194 | 0.0 | 0.0 | 0.00 | 0.20 | 0.00 | 97 | 1019.3 |
| 20260830154529 | 53 | 194 | 0.0 | 0.0 | 0.00 | 0.21 | 0.00 | 97 | 1019.2 |
| 20260830153802 | 53 | 194 | 0.0 | 0.0 | 0.00 | 0.21 | 0.00 | 97 | 1019.2 |
| 20260830153254 | 53 | 194 | 0.0 | 0.0 | 0.00 | 0.21 | 0.00 | 96 | 1019.1 |
| 20260830152753 | 53 | 194 | 0.0 | 0.0 | 0.00 | 0.22 | 0.00 | 96 | 1019.2 |
| 20260830152245 | 53 | 194 | 0.0 | 0.0 | 0.00 | 0.23 | 0.00 | 96 | 1019.3 |
| 20260830151735 | 53 | 194 | 0.0 | 0.0 | 0.00 | 0.25 | 0.00 | 96 | 1019.2 |
| 20260830151234 | 53 | 194 | 0.0 | 0.0 | 0.00 | 0.28 | 0.00 | 96 | 1019.2 |
| 20260830150729 | 53 | 194 | 0.0 | 1.0 | 0.00 | 0.37 | 0.00 | 96 | 1019.3 |
| 20260830150221 | 53 | 194 | 0.0 | 1.0 | 0.00 | 0.45 | 0.00 | 96 | 1019.3 |
| 20260830145716 | 53 | 194 | 0.0 | 0.0 | 0.00 | 0.46 | 0.00 | 96 | 1019.3 |
| 20260830145427 | 53 | 194 | 0.0 | 0.0 | 0.00 | 0.47 | 0.00 | 96 | 1019.2 |
| 20260830145156 | 53 | 194 | 0.0 | 0.0 | 0.00 | 0.47 | 0.00 | 96 | 1019.2 |
| 20260830144157 | 53 | 194 | 0.0 | 0.0 | 0.00 | 0.47 | 0.00 | 96 | 1019.1 |
| 20260830143650 | 53 | 194 | 0.0 | 0.0 | 0.00 | 0.47 | 0.00 | 96 | 1019.1 |
| 20260830143625 | 53 | 194 | 0.0 | 0.0 | 0.00 | 0.47 | 0.00 | 96 | 1019.1 |
| 20260830142641 | 53 | 194 | 0.0 | 1.0 | 0.00 | 0.47 | 0.00 | 96 | 1019.0 |
| 20260830142352 | 53 | 194 | 0.0 | 1.0 | 0.00 | 0.48 | 0.00 | 96 | 1019.0 |
| 20260830141627 | 53 | 193 | 0.0 | 0.0 | 0.00 | 0.48 | 0.00 | 96 | 1019.0 |
| 20260830141117 | 53 | 193 | 0.0 | 0.0 | 0.00 | 0.48 | 0.00 | 96 | 1018.9 |
| 20260830140617 | 53 | 193 | 0.0 | 0.0 | 0.00 | 0.48 | 0.00 | 96 | 1018.9 |
| 20260830140109 | 53 | 193 | 0.0 | 0.0 | 0.00 | 0.48 | 0.00 | 96 | 1019.0 |
| 20260830135603 | 53 | 193 | 0.0 | 0.0 | 0.00 | 0.48 | 0.00 | 96 | 1018.9 |
| 20260830135056 | 53 | 193 | 0.0 | 0.0 | 0.00 | 0.48 | 0.00 | 96 | 1018.9 |
| 20260830134551 | 53 | 193 | 0.0 | 0.0 | 0.00 | 0.48 | 0.00 | 96 | 1018.9 |
| 20260830134049 | 53 | 193 | 0.0 | 0.0 | 0.00 | 0.48 | 0.00 | 96 | 1018.9 |
| 20260830133548 | 53 | 193 | 0.0 | 0.0 | 0.00 | 0.48 | 0.00 | 96 | 1018.9 |
| 20260830133049 | 53 | 193 | 0.0 | 0.0 | 0.00 | 0.48 | 0.00 | 96 | 1018.8 |
| 20260830132548 | 53 | 193 | 0.0 | 0.0 | 0.00 | 0.48 | 0.00 | 96 | 1018.8 |
| 20260830132322 | 53 | 193 | 0.0 | 0.0 | 0.00 | 0.48 | 0.00 | 96 | 1018.8 |
| 20260830131551 | 53 | 193 | 0.0 | 0.0 | 0.00 | 0.48 | 0.00 | 96 | 1018.9 |
| 20260830131047 | 53 | 193 | 0.0 | 0.0 | 0.00 | 0.48 | 0.00 | 96 | 1018.9 |
| 20260830130546 | 53 | 193 | 0.0 | 0.0 | 0.00 | 0.48 | 0.00 | 96 | 1018.9 |
| 20260830130043 | 53 | 193 | 0.0 | 0.0 | 0.00 | 0.48 | 0.00 | 96 | 1018.9 |
| 20260830125813 | 53 | 193 | 0.0 | 0.0 | 0.00 | 0.48 | 0.00 | 96 | 1018.9 |
| 20260830125320 | 53 | 193 | 0.0 | 0.0 | 0.00 | 0.48 | 0.00 | 96 | 1018.9 |
| 20260830124547 | 53 | 193 | 0.0 | 0.0 | 0.00 | 0.48 | 0.00 | 96 | 1019.0 |
| 20260830124045 | 53 | 193 | 0.0 | 0.0 | 0.00 | 0.48 | 0.00 | 96 | 1019.0 |
| 20260830123546 | 53 | 193 | 0.0 | 0.0 | 0.00 | 0.48 | 0.00 | 96 | 1018.9 |
| 20260830123043 | 53 | 193 | 0.0 | 0.0 | 0.00 | 0.48 | 0.00 | 96 | 1018.9 |
| 20260830122814 | 53 | 193 | 0.0 | 0.0 | 0.00 | 0.48 | 0.00 | 96 | 1018.9 |
| 20260830122038 | 53 | 193 | 0.0 | 0.0 | 0.00 | 0.48 | 0.00 | 96 | 1018.9 |